Погода в Беленьком

Украина / Донецкая область     48˚46′00″N   37˚37′53″E
темп.,
°C
ветер,
м/с
пор.,
м/с
влажн.,
%
обл.,
%
осадки,
мм/ч
давл.,
гПа
погр.,
м
5 декабря, сб
сб523:00−3˚вюв612610 0.0 1033455
02:00−3˚в612610 0.0 1034426
05:00−4˚в712630 0.0 1034398
08:00−4˚в712550 0.0 1035392
11:00−2˚в712380 0.0 1035470
14:00−1˚в711350 0.0 1035525
17:00−3˚в713430 0.0 1035440
20:00−4˚в713460 0.0 1036430
6 декабря, вс
вс623:00−5˚в612470 0.0 1037398
02:00−6˚в612520 0.0 1037370
05:00−7˚в713580 0.0 1037390
08:00−7˚в712670 0.0 1037428
11:00−4˚в712580 0.0 1037540
14:00−4˚в711540 0.0 1036597
17:00−6˚в713670 0.0 1037564
20:00−7˚в813710 0.0 1037537
7 декабря, пн
пн723:00−7˚в713700 0.0 1037517
02:00−8˚в714690 0.0 1037499
05:00−8˚в815690 0.0 1036496
08:00−8˚в815620 0.0 1036493
11:00−5˚в814500 0.0 1036563
14:00−4˚в813480 0.0 1035580
17:00−6˚в814590 0.0 1035518
20:00−6˚в815640 0.0 1035478
8 декабря, вт
вт823:00−7˚в815660 0.0 1034446
02:00−8˚в815680 0.0 1034438
05:00−8˚в814660 0.0 1033427
08:00−7˚в815620 0.0 1033447
11:00−4˚в813480 0.0 1032533
14:00−2˚в713430 0.0 1031581
17:00−4˚в715530 0.0 1031482
20:00−5˚в715590 0.0 1032446
9 декабря, ср
ср923:00−6˚в713600 0.0 1032433
02:00−6˚в714620 0.0 1032416
05:00−6˚в713670 0.0 1031417
08:00−6˚в714690 0.0 1032449
11:00−3˚вюв7126276 0.0 1032572
14:00−2˚в7116185 0.0 1031648
17:00−3˚в6126383 0.0 1031537
20:00−3˚вюв7126690 0.0 1031503